Location: Puketoi
(40.5833°S, 176.0167°E)
Time: 14:16:32
(UTC+00:00)

Meteor 2-10 Rocket - Pass Details

Date: 08 February 2023
Orbit: 733 x 885 km, 81.2° (Epoch: 30 March)

Event Time Altitude Azimuth Distance (km) Brightness Sun altitude
Rises 14:56:45 0° 188° (S) 3,320 7.4 -24.9°
Reaches altitude 10° 14:59:07 10° 185° (S) 2,406 6.6 -24.6°
Maximum altitude 15:04:34 71° 100° (E) 881 3.8 -23.9°
Enters shadow 15:07:34 28° 22° (NNE) 1,528 4.8 -23.5°
